Location: Taupo
(38.6830°S, 176.0830°E)
Time: 14:24:53
(UTC+12:00)

Cosmos 2208 Rocket - Pass Details

Date: 24 January 2019
Orbit: 755 x 805 km, 74.0° (Epoch: 22 April)

Event Time Altitude Azimuth Distance (km) Brightness Sun altitude
Rises 21:57:06 0° 201° (SSW) 3,248 8.4 -14.0°
Reaches altitude 10° 21:59:29 10° 202° (SSW) 2,319 7.5 -14.3°
Maximum altitude 22:04:44 73° 286° (WNW) 807 4.2 -15.1°
Enters shadow 22:08:54 16° 8° (N) 1,909 5.6 -15.7°
